| time (UTC) | temp F | wind direction | speed MPH | gust MPH | rain 1hr in | rain 24hr in | rain mn in | humidity % | barometer mb |
| 20260509002025 | 53 | 72 | 2.0 | 9.0 | 0.00 | 0.00 | 0.00 | 70 | 1028.6 |
| 20260509001025 | 52 | 120 | 2.0 | 5.0 | 0.00 | 0.00 | 0.00 | 70 | 1028.6 |
| 20260509000025 | 52 | 167 | 1.0 | 9.0 | 0.00 | 0.00 | 0.00 | 70 | 1028.5 |
| 20260508235004 | 52 | 192 | 1.0 | 5.0 | 0.00 | 0.00 | 0.00 | 69 | 1028.4 |
| 20260508234004 | 52 | 92 | 1.0 | 7.0 | 0.00 | 0.00 | 0.00 | 69 | 1028.4 |
| 20260508233004 | 52 | 81 | 1.0 | 6.0 | 0.00 | 0.00 | 0.00 | 69 | 1028.3 |
| 20260508232004 | 52 | 284 | 0.0 | 2.0 | 0.00 | 0.00 | 0.00 | 68 | 1028.4 |
| 20260508231004 | 52 | 287 | 0.0 | 2.0 | 0.00 | 0.00 | 0.00 | 68 | 1028.4 |
| 20260508230004 | 52 | 91 | 1.0 | 3.0 | 0.00 | 0.00 | 0.00 | 68 | 1028.2 |
| 20260508225025 | 53 | 100 | 1.0 | 4.0 | 0.00 | 0.00 | 0.00 | 67 | 1028.2 |
| 20260508224004 | 53 | 115 | 1.0 | 4.0 | 0.00 | 0.00 | 0.00 | 67 | 1028.1 |
| 20260508223003 | 53 | 118 | 1.0 | 6.0 | 0.00 | 0.00 | 0.00 | 66 | 1028.0 |
| 20260508222004 | 54 | 181 | 1.0 | 4.0 | 0.00 | 0.00 | 0.00 | 66 | 1027.9 |
| 20260508221004 | 54 | 132 | 2.0 | 9.0 | 0.00 | 0.00 | 0.00 | 65 | 1027.7 |
| 20260508220003 | 54 | 52 | 2.0 | 7.0 | 0.00 | 0.00 | 0.00 | 65 | 1027.5 |
| 20260508215003 | 54 | 4 | 1.0 | 8.0 | 0.00 | 0.00 | 0.00 | 64 | 1027.3 |
| 20260508214003 | 55 | 65 | 2.0 | 9.0 | 0.00 | 0.00 | 0.00 | 64 | 1027.3 |
| 20260508213003 | 55 | 88 | 3.0 | 9.0 | 0.00 | 0.00 | 0.00 | 63 | 1027.2 |
| 20260508212003 | 55 | 64 | 2.0 | 10.0 | 0.00 | 0.00 | 0.00 | 64 | 1027.1 |
| 20260508211003 | 54 | 40 | 2.0 | 9.0 | 0.00 | 0.00 | 0.00 | 65 | 1027.0 |
| 20260508210003 | 54 | 53 | 1.0 | 4.0 | 0.00 | 0.00 | 0.00 | 65 | 1027.0 |
| 20260508205003 | 54 | 52 | 1.0 | 5.0 | 0.00 | 0.00 | 0.00 | 65 | 1027.0 |
| 20260508204003 | 54 | 48 | 2.0 | 8.0 | 0.00 | 0.00 | 0.00 | 66 | 1026.9 |
| 20260508203024 | 53 | 277 | 1.0 | 3.0 | 0.00 | 0.00 | 0.00 | 66 | 1026.9 |
| 20260508202003 | 53 | 20 | 1.0 | 4.0 | 0.00 | 0.00 | 0.00 | 66 | 1026.9 |
| 20260508201003 | 53 | 168 | 2.0 | 7.0 | 0.00 | 0.00 | 0.00 | 66 | 1026.9 |
| 20260508200004 | 53 | 95 | 2.0 | 9.0 | 0.00 | 0.00 | 0.00 | 65 | 1026.8 |
| 20260508195003 | 53 | 94 | 1.0 | 3.0 | 0.00 | 0.00 | 0.00 | 65 | 1026.8 |
| 20260508194004 | 54 | 154 | 2.0 | 6.0 | 0.00 | 0.00 | 0.00 | 65 | 1026.9 |
| 20260508193003 | 54 | 119 | 1.0 | 7.0 | 0.00 | 0.00 | 0.00 | 65 | 1026.7 |
| 20260508192003 | 54 | 229 | 1.0 | 4.0 | 0.00 | 0.00 | 0.00 | 64 | 1026.6 |
| 20260508191003 | 54 | 142 | 2.0 | 7.0 | 0.00 | 0.00 | 0.00 | 64 | 1026.7 |
| 20260508190004 | 54 | 156 | 2.0 | 12.0 | 0.00 | 0.00 | 0.00 | 64 | 1026.7 |
| 20260508185004 | 54 | 117 | 1.0 | 4.0 | 0.00 | 0.00 | 0.00 | 64 | 1026.8 |
| 20260508184004 | 54 | 163 | 1.0 | 5.0 | 0.00 | 0.00 | 0.00 | 64 | 1026.8 |
| 20260508183004 | 54 | 236 | 1.0 | 4.0 | 0.00 | 0.00 | 0.00 | 63 | 1026.8 |
| 20260508182004 | 55 | 96 | 1.0 | 3.0 | 0.00 | 0.00 | 0.00 | 62 | 1026.7 |
| 20260508181025 | 55 | 175 | 1.0 | 6.0 | 0.00 | 0.00 | 0.00 | 62 | 1026.8 |
| 20260508180004 | 55 | 191 | 1.0 | 4.0 | 0.00 | 0.00 | 0.00 | 62 | 1026.6 |
| 20260508175004 | 55 | 167 | 1.0 | 4.0 | 0.00 | 0.00 | 0.00 | 61 | 1026.7 |
| 20260508174004 | 56 | 219 | 1.0 | 6.0 | 0.00 | 0.00 | 0.00 | 61 | 1026.8 |
| 20260508173004 | 56 | 140 | 1.0 | 6.0 | 0.00 | 0.00 | 0.00 | 61 | 1026.9 |
| 20260508172025 | 56 | 123 | 1.0 | 4.0 | 0.00 | 0.00 | 0.00 | 60 | 1027.0 |
| 20260508171004 | 56 | 54 | 1.0 | 8.0 | 0.00 | 0.00 | 0.00 | 60 | 1027.0 |
| 20260508170004 | 56 | 78 | 1.0 | 5.0 | 0.00 | 0.00 | 0.00 | 59 | 1026.9 |
| 20260508165004 | 56 | 88 | 1.0 | 5.0 | 0.00 | 0.00 | 0.00 | 59 | 1026.8 |
| 20260508164004 | 57 | 55 | 1.0 | 7.0 | 0.00 | 0.00 | 0.00 | 58 | 1026.7 |
| 20260508163025 | 57 | 36 | 1.0 | 6.0 | 0.00 | 0.00 | 0.00 | 58 | 1026.5 |
| 20260508162025 | 57 | 71 | 2.0 | 8.0 | 0.00 | 0.00 | 0.00 | 57 | 1026.5 |
| 20260508161004 | 57 | 111 | 2.0 | 8.0 | 0.00 | 0.00 | 0.00 | 57 | 1026.3 |
| 20260508160004 | 57 | 333 | 2.0 | 6.0 | 0.00 | 0.00 | 0.00 | 57 | 1026.3 |
| 20260508155003 | 58 | 22 | 2.0 | 7.0 | 0.00 | 0.00 | 0.00 | 56 | 1026.3 |
| 20260508154004 | 58 | 280 | 2.0 | 8.0 | 0.00 | 0.00 | 0.00 | 56 | 1026.3 |
| 20260508153003 | 58 | 140 | 2.0 | 6.0 | 0.00 | 0.00 | 0.00 | 55 | 1026.2 |
| 20260508152024 | 58 | 153 | 1.0 | 5.0 | 0.00 | 0.00 | 0.00 | 55 | 1026.3 |
| 20260508151004 | 58 | 201 | 2.0 | 6.0 | 0.00 | 0.00 | 0.00 | 55 | 1026.4 |
| 20260508150025 | 59 | 226 | 1.0 | 3.0 | 0.00 | 0.00 | 0.00 | 55 | 1026.3 |
| 20260508145024 | 59 | 246 | 1.0 | 3.0 | 0.00 | 0.00 | 0.00 | 55 | 1026.4 |
| 20260508144004 | 59 | 222 | 1.0 | 4.0 | 0.00 | 0.00 | 0.00 | 55 | 1026.5 |
| 20260508143004 | 59 | 174 | 2.0 | 7.0 | 0.00 | 0.00 | 0.00 | 55 | 1026.7 |
| 20260508142025 | 59 | 56 | 1.0 | 4.0 | 0.00 | 0.00 | 0.00 | 54 | 1026.7 |
| 20260508141004 | 59 | 58 | 1.0 | 4.0 | 0.00 | 0.00 | 0.00 | 55 | 1026.8 |
| 20260508140004 | 59 | 120 | 1.0 | 8.0 | 0.00 | 0.00 | 0.00 | 55 | 1026.8 |
| 20260508135004 | 59 | 156 | 1.0 | 6.0 | 0.00 | 0.00 | 0.00 | 55 | 1026.8 |
| 20260508134004 | 59 | 114 | 1.0 | 7.0 | 0.00 | 0.00 | 0.00 | 56 | 1026.7 |
| 20260508133004 | 60 | 128 | 1.0 | 3.0 | 0.00 | 0.00 | 0.00 | 56 | 1026.6 |
| 20260508132004 | 60 | 158 | 1.0 | 6.0 | 0.00 | 0.00 | 0.00 | 57 | 1026.6 |
| 20260508131003 | 60 | 75 | 2.0 | 4.0 | 0.00 | 0.00 | 0.00 | 57 | 1026.6 |
| 20260508130004 | 60 | 1 | 2.0 | 7.0 | 0.00 | 0.00 | 0.00 | 57 | 1026.5 |
| 20260508125003 | 60 | 80 | 1.0 | 7.0 | 0.00 | 0.00 | 0.00 | 57 | 1026.4 |
| 20260508124024 | 60 | 346 | 1.0 | 4.0 | 0.00 | 0.00 | 0.00 | 57 | 1026.4 |
| 20260508123003 | 60 | 358 | 1.0 | 4.0 | 0.00 | 0.00 | 0.00 | 57 | 1026.3 |
| 20260508122003 | 61 | 350 | 1.0 | 4.0 | 0.00 | 0.00 | 0.00 | 57 | 1026.4 |
| 20260508121003 | 61 | 9 | 2.0 | 5.0 | 0.00 | 0.00 | 0.00 | 57 | 1026.4 |
| 20260508120004 | 61 | 6 | 2.0 | 8.0 | 0.00 | 0.00 | 0.00 | 57 | 1026.4 |
| 20260508115024 | 61 | 351 | 2.0 | 7.0 | 0.00 | 0.00 | 0.00 | 57 | 1026.4 |
| 20260508114003 | 61 | 6 | 2.0 | 4.0 | 0.00 | 0.00 | 0.00 | 57 | 1026.5 |
| 20260508113004 | 61 | 5 | 2.0 | 6.0 | 0.00 | 0.00 | 0.00 | 57 | 1026.5 |
| 20260508112003 | 61 | 4 | 1.0 | 5.0 | 0.00 | 0.00 | 0.00 | 57 | 1026.4 |
| 20260508111003 | 62 | 345 | 1.0 | 3.0 | 0.00 | 0.00 | 0.00 | 57 | 1026.5 |
| 20260508110024 | 62 | 347 | 2.0 | 4.0 | 0.00 | 0.00 | 0.00 | 56 | 1026.5 |
| 20260508105003 | 62 | 347 | 2.0 | 4.0 | 0.00 | 0.00 | 0.00 | 56 | 1026.5 |
| 20260508104003 | 63 | 340 | 2.0 | 5.0 | 0.00 | 0.00 | 0.00 | 55 | 1026.4 |
| 20260508103004 | 63 | 343 | 1.0 | 3.0 | 0.00 | 0.00 | 0.00 | 54 | 1026.3 |
| 20260508102004 | 64 | 6 | 1.0 | 3.0 | 0.00 | 0.00 | 0.00 | 53 | 1026.3 |
| 20260508101004 | 64 | 346 | 1.0 | 2.0 | 0.00 | 0.00 | 0.00 | 53 | 1026.3 |
| 20260508100004 | 65 | 3 | 1.0 | 3.0 | 0.00 | 0.00 | 0.00 | 52 | 1026.3 |
| 20260508095025 | 65 | 14 | 1.0 | 6.0 | 0.00 | 0.00 | 0.00 | 51 | 1026.2 |
| 20260508094003 | 66 | 16 | 1.0 | 4.0 | 0.00 | 0.00 | 0.00 | 50 | 1026.2 |
| 20260508093004 | 67 | 34 | 1.0 | 4.0 | 0.00 | 0.00 | 0.00 | 49 | 1026.1 |
| 20260508092025 | 67 | 316 | 2.0 | 6.0 | 0.00 | 0.00 | 0.00 | 49 | 1026.0 |
| 20260508091025 | 68 | 60 | 2.0 | 7.0 | 0.00 | 0.00 | 0.00 | 48 | 1026.0 |
| 20260508090004 | 69 | 41 | 2.0 | 5.0 | 0.00 | 0.00 | 0.00 | 48 | 1025.9 |
| 20260508085025 | 69 | 32 | 2.0 | 7.0 | 0.00 | 0.00 | 0.00 | 47 | 1025.8 |
| 20260508084004 | 70 | 29 | 3.0 | 13.0 | 0.00 | 0.00 | 0.00 | 46 | 1025.8 |
| 20260508083004 | 70 | 39 | 3.0 | 11.0 | 0.00 | 0.00 | 0.00 | 46 | 1025.8 |
| 20260508082004 | 70 | 33 | 3.0 | 9.0 | 0.00 | 0.00 | 0.00 | 46 | 1025.8 |
| 20260508081004 | 71 | 154 | 3.0 | 16.0 | 0.00 | 0.00 | 0.00 | 46 | 1025.8 |
| 20260508080004 | 71 | 32 | 2.0 | 9.0 | 0.00 | 0.00 | 0.00 | 45 | 1025.8 |
| 20260508075004 | 71 | 82 | 4.0 | 9.0 | 0.00 | 0.00 | 0.00 | 45 | 1025.8 |
| 20260508074004 | 71 | 46 | 4.0 | 13.0 | 0.00 | 0.00 | 0.00 | 45 | 1025.7 |
| 20260508073004 | 72 | 54 | 2.0 | 9.0 | 0.00 | 0.00 | 0.00 | 45 | 1025.7 |
| 20260508072004 | 72 | 88 | 3.0 | 8.0 | 0.00 | 0.00 | 0.00 | 46 | 1025.8 |
| 20260508071004 | 72 | 41 | 3.0 | 9.0 | 0.00 | 0.00 | 0.00 | 45 | 1025.8 |
| 20260508070004 | 72 | 52 | 3.0 | 11.0 | 0.00 | 0.00 | 0.00 | 45 | 1025.8 |
| 20260508065004 | 72 | 35 | 3.0 | 6.0 | 0.00 | 0.00 | 0.00 | 45 | 1025.9 |
| 20260508064004 | 72 | 65 | 4.0 | 15.0 | 0.00 | 0.00 | 0.00 | 47 | 1025.9 |
| 20260508063004 | 72 | 32 | 3.0 | 10.0 | 0.00 | 0.00 | 0.00 | 46 | 1026.0 |
| 20260508062025 | 71 | 35 | 5.0 | 16.0 | 0.00 | 0.00 | 0.00 | 45 | 1026.1 |
| 20260508061004 | 71 | 16 | 3.0 | 10.0 | 0.00 | 0.00 | 0.00 | 48 | 1026.1 |
| 20260508060004 | 71 | 109 | 3.0 | 8.0 | 0.00 | 0.00 | 0.00 | 48 | 1026.2 |
| 20260508055004 | 71 | 46 | 4.0 | 12.0 | 0.00 | 0.00 | 0.00 | 48 | 1026.3 |
| 20260508054004 | 70 | 92 | 4.0 | 10.0 | 0.00 | 0.00 | 0.00 | 50 | 1026.4 |
| 20260508053004 | 70 | 64 | 4.0 | 13.0 | 0.00 | 0.00 | 0.00 | 50 | 1026.5 |
| 20260508052004 | 70 | 123 | 3.0 | 11.0 | 0.00 | 0.00 | 0.00 | 50 | 1026.7 |
| 20260508051003 | 70 | 41 | 4.0 | 10.0 | 0.00 | 0.00 | 0.00 | 52 | 1026.8 |
| 20260508050004 | 69 | 29 | 4.0 | 16.0 | 0.00 | 0.00 | 0.00 | 51 | 1026.9 |
| 20260508045003 | 69 | 33 | 3.0 | 10.0 | 0.00 | 0.00 | 0.00 | 53 | 1027.2 |
| 20260508044003 | 69 | 11 | 4.0 | 13.0 | 0.00 | 0.00 | 0.00 | 56 | 1027.2 |
| 20260508043003 | 68 | 33 | 4.0 | 19.0 | 0.00 | 0.00 | 0.00 | 55 | 1027.5 |
| 20260508042003 | 68 | 21 | 5.0 | 13.0 | 0.00 | 0.00 | 0.00 | 57 | 1027.8 |
| 20260508041003 | 68 | 14 | 6.0 | 15.0 | 0.00 | 0.00 | 0.00 | 56 | 1028.0 |
| 20260508040004 | 68 | 12 | 5.0 | 18.0 | 0.00 | 0.00 | 0.00 | 56 | 1028.3 |
| 20260508035003 | 67 | 25 | 5.0 | 13.0 | 0.00 | 0.00 | 0.00 | 57 | 1028.4 |
| 20260508034024 | 67 | 16 | 5.0 | 12.0 | 0.00 | 0.00 | 0.00 | 56 | 1028.7 |
| 20260508033003 | 67 | 14 | 5.0 | 15.0 | 0.00 | 0.00 | 0.00 | 57 | 1028.8 |
| 20260508032004 | 66 | 29 | 4.0 | 10.0 | 0.00 | 0.00 | 0.00 | 58 | 1028.9 |
| 20260508031025 | 66 | 34 | 5.0 | 15.0 | 0.00 | 0.00 | 0.00 | 59 | 1029.1 |
| 20260508030024 | 66 | 24 | 6.0 | 18.0 | 0.00 | 0.00 | 0.00 | 59 | 1029.2 |
| 20260508025003 | 65 | 38 | 6.0 | 21.0 | 0.00 | 0.00 | 0.00 | 59 | 1029.3 |
| 20260508024004 | 65 | 18 | 5.0 | 17.0 | 0.00 | 0.00 | 0.00 | 61 | 1029.3 |
| 20260508023003 | 64 | 26 | 5.0 | 15.0 | 0.00 | 0.00 | 0.00 | 63 | 1029.5 |
| 20260508022003 | 64 | 34 | 6.0 | 17.0 | 0.00 | 0.00 | 0.00 | 62 | 1029.6 |
| 20260508021024 | 64 | 46 | 7.0 | 16.0 | 0.00 | 0.00 | 0.00 | 63 | 1029.6 |
| 20260508020004 | 63 | 31 | 4.0 | 11.0 | 0.00 | 0.00 | 0.00 | 65 | 1029.8 |
| 20260508015003 | 62 | 37 | 3.0 | 16.0 | 0.00 | 0.00 | 0.00 | 66 | 1029.9 |
| 20260508014003 | 62 | 39 | 3.0 | 10.0 | 0.00 | 0.00 | 0.00 | 67 | 1030.0 |
| 20260508013003 | 61 | 77 | 2.0 | 9.0 | 0.00 | 0.00 | 0.00 | 70 | 1030.1 |
| 20260508012004 | 60 | 88 | 2.0 | 8.0 | 0.00 | 0.00 | 0.00 | 73 | 1030.2 |
| 20260508011004 | 58 | 45 | 1.0 | 5.0 | 0.00 | 0.00 | 0.00 | 75 | 1030.3 |
| 20260508010005 | 57 | 24 | 1.0 | 4.0 | 0.00 | 0.00 | 0.00 | 77 | 1030.3 |
| 20260508005004 | 56 | 98 | 2.0 | 9.0 | 0.00 | 0.00 | 0.00 | 79 | 1030.4 |
| 20260508004003 | 55 | 82 | 2.0 | 8.0 | 0.00 | 0.00 | 0.00 | 82 | 1030.4 |
| 20260508003004 | 54 | 65 | 0.0 | 4.0 | 0.00 | 0.00 | 0.00 | 83 | 1030.4 |